www.pogodaiklimat.ru

Погода и климат >> Архив погоды >> Италия >> Термоли


ПОГОДА в Термоли

  • Прогноз погоды в Термоли
  • Монитор погоды в Термоли

АРХИВ ПОГОДЫ в Термоли

Время (UTC), дата Ветер
(напр.,м/с)
 
Видим.   Явления Облачность Т
(С)
Тd
(С)
f
(%)
Тe
(С)
Тes
(С)
Комфортность P
(гПа)
Po
(гПа)
Тmin
(С)
Tmax
(С)
R
(мм)
R24
(мм)
S
(см)
09 13.09 СЗ 8 10 км 4/3 800 м
[Cu med, cong Ac trans]
+24.8 +21.5 82 +32 +33 очень
душно
1028.3 1023.1
12 13.09 СЗ 7 20 км 4/4 800 м
[Cu med, cong]
+26.0 +23.5 86 +35 +37 очень
душно
1027.8 1022.6
15 13.09 СЗ 6 20 км 3/3 800 м
[Cu med, cong]
+26.4 +20.7 71 +33 +34 очень
душно
1027.0 1021.8
18 13.09 СЗ 5 20 км ясно +24.6 +22.3 87 +32 +32 очень
душно
1026.4 1021.2 +26.6
06 14.09 З 5 20 км 3/3 800 м
[Cu med, cong]
+22.0 +18.0 78 +27 +27 душно 1026.2 1021.0 +21.4
09 14.09 СЗ 7 20 км 4/4 800 м
[Cu med, cong]
+25.0 +21.9 83 +32 +34 очень
душно
1026.5 1021.3
12 14.09 СЗ 7 20 км 4/4 800 м
[Cu med, cong Ci fib]
+26.4 +21.8 76 +34 +36 очень
душно
1026.2 1021.0
15 14.09 СЗ 7 20 км 4/4 800 м
[Cu med, cong]
+26.4 +21.8 76 +34 +34 очень
душно
1025.1 1020.0
18 14.09 СЗ 5 20 км 4/0 1500 м
[Ac trans Ci fib]
+25.0 +21.5 81 +32 +32 очень
душно
1024.7 1019.6 +26.4
06 15.09 З 7 20 км ясно +22.6 +15.9 66 +27 +27 душно 1024.4 1019.2 +22.4
09 15.09 СЗ 5 20 км 5/0
[Ci fib]
+25.4 +21.5 79 +32 +37 очень
душно
1024.6 1019.5
12 15.09 С 4 10 км 8/3 800 м
[Cu hum Ci fib]
+24.6 +22.5 88 +32 +37 очень
душно
1023.8 1018.7
15 15.09 С 3 20 км 8/3 800 м
[Cu hum Ci fib]
+25.6 +21.3 77 +32 +34 очень
душно
1022.8 1017.7
18 15.09 штиль 0 10 км 8/3 800 м
[Cu hum Ci fib]
+24.0 +20.7 82 +30 +30 очень
душно
1021.8 1016.6 +27.2
06 16.09 Ю 1 10 км 5/0
[Ci fib]
+21.6 +19.2 86 +27 +28 душно 1019.7 1014.5 +21.2
09 16.09 С 1 10 км 8/0
[Ci fib]
+24.8 +21.5 82 +32 +42 очень
душно
1020.0 1014.8
12 16.09 СВ 1 20 км 6/0
[Ci fib]
+27.4 +20.7 67 +34 +47 очень
душно
1019.1 1014.1
15 16.09 В 1 20 км 5/0
[Ci fib]
+28.6 +22.1 68 +37 +41 очень
душно
1017.5 1012.5
18 16.09 штиль 0 20 км 4/0
[Ci fib]
+25.6 +21.5 78 +33 +33 очень
душно
1016.9 1011.8 +28.6
06 17.09 ЮЗ 1 20 км ясно +22.8 +19.6 82 +29 +30 очень
душно
1015.5 1010.4 +21.0
09 17.09 СВ 1 20 км 1/1 750 м
[Cu hum]
+27.4 +25.0 87 +39 +49 очень
душно
1015.8 1010.7
12 17.09 СВ 3 20 км 1/1 750 м
[Cu hum]
+29.2 +23.2 70 +39 +49 очень
душно
1014.3 1009.3
15 17.09 В 5 20 км 1/1 750 м
[Cu hum]
+28.2 +25.4 85 +41 +43 опасность
перегрева
1013.1 1008.1
18 17.09 В 4 20 км ясно +26.8 +24.8 89 +38 +38 очень
душно
1012.9 1007.9 +29.4
06 18.09 З 2 20 км ясно +24.4 +18.1 68 +29 +30 душно 1013.9 1008.8 +23.8
09 18.09 СЗ 2 10 км ясно +27.6 +23.0 76 +37 +46 очень
душно
1014.5 1009.5
12 18.09 С 2 10 км 3/3 750 м
[Cu hum]
+26.4 +25.0 92 +38 +46 очень
душно
1014.2 1009.1
15 18.09 СВ 1 10 км 1/1 750 м
[Cu med, cong]
+29.4 +24.7 76 +42 +45 опасность
перегрева
1013.8 1008.8
18 18.09 С 1 10 км 4/4 750 м
[Cu hum]
+25.8 +23.9 89 +35 +35 очень
душно
1014.6 1009.5 +29.4
06 19.09 ЮЗ 4 4000 м гроза, ливневой дождь 10/10 300 м
[Cb cap]
+20.6 +18.9 90 +25 +25 комфорт 1014.7 1009.5 +20.6 21
09 19.09 СВ 3 10 км в посл. час дождь {гроза} 10/10 300 м
[Cb cap]
+22.0 +19.7 87 +28 +28 душно 1016.5 1011.4
12 19.09 СЗ 1 20 км {гроза, дождь} 8/6 300 м
[Cu Sc Ac As]
+24.2 +20.7 81 +30 +34 очень
душно
1016.1 1011.0 0.4
15 19.09 С 5 20 км 9/8 480 м
[Cu med, cong Ac As]
+23.2 +20.0 82 +30 +30 очень
душно
1016.1 1011.0
18 19.09 С 5 20 км 9/9 450 м
[Cb calv]
+23.0 +19.0 78 +29 +29 очень
душно
1017.1 1012.0 +25.8 0.4
06 20.09 С 10 25 км 4/4 700 м
[Cu med, cong]
+21.0 +11.1 53 +23 +23 комфорт 1020.6 1015.4 +20.4

 

Местоположение метеостанции Термоли (Италия): широта 42.00 долгота 15.00 высота над уровнем моря 44 м.

В архиве по умолчанию представлена погода в Термоли за последнюю неделю. Архивные данные за месяц целиком и за предыдущие месяцы, начиная с января 2011 года, Вы можете получить, выбрав интересующий диапазон дат из раскрывающегося списка и нажав кнопку "Ввод!".


*Определитесь, кто Вы:
робот инопланетянин человек

Внимание! Время в таблицах - всемирное. Для получения местного времени необходимо прибавить поправку, которая равна 1 ч.

Смотрите также архив погоды в соседних городах и на ближайших метеорологических станциях:

Погода в Кампобассо (Италия) (56 км)
Погода в Амендоле (Италия) (79 км)
Погода в Монте-Сант-Анджело (Италия) (85 км)
Погода во Вьесте (Италия) (98 км)
Погода в Тревико (Италия) (107 км)
Погода на Палагруже (Хорватия) (114 км)
Погода в Фучино (Италия) (115 км)
Погода в Казерте (Италия) (118 км)
Погода в Граццанизе (Италия) (131 км)
Погода в Неаполе (Италия) (141 км)

Пояснения к столбцам:

Ветер - указаны скорость ветра в м/с - средняя за 10 мин, порывы в срок и между сроками (в фигурных скобках) и направление, откуда дует ветер: С - северный, СВ - северо-восточный, В - восточный, ЮВ - юго-восточный, Ю - южный, ЮЗ - юго-западный, З - западный, СЗ - северо-западный.
Видимость - горизонтальная дальность видимости в метрах или километрах. При видимости от 1 до 10 км при отсутствии осадков обычно наблюдается дымка, при ухудшении видимости до 1 км и менее - туман. В сухую погоду видимость может ухудшаться дымом, пылью или мглою.
Явления - указаны атмосферные явления, наблюдавшиеся в срок или в последний час перед сроком; фигурными скобками обозначены явления, наблюдавшиеся между сроками (за 1-3 часа до срока); квадратными скобками обозначены град или гололедные отложения с указанием их диаметра в мм.
Облачность - указаны через наклонную черту общая и нижняя облачность в баллах и высота нижней границы облаков в метрах; квадратными скобками обозначены формы облаков: Ci - перистые, Cs - перисто-слоистые, Cc - перисто-кучевые, Ac - высококучевые, As - высокослоистые, Sc - слоисто-кучевые, Ns - слоисто-дождевые, Cu - кучевые, Cb - кучево-дождевые. Подробнее классификацию облаков см. в Атласе облаков (PDF).
T - Температура воздуха - температура, измеренная на высоте 2 м над землей.
Td - Температура точки росы - температура, при понижении до которой содержащийся в воздухе водяной пар достигнет насыщения.
f - Относительная влажность воздуха - влажноcть воздуха, измеренная на высоте 2 м над землей.
Te - Эффективная температура - температура, которую ощущает одетый по сезону человек в тени. Характеристика душности погоды. При расчете учитывается влияние влажности воздуха и скорости ветра на теплоощущения человека.
Tes - Эффективная температура на солнце - температура, которую ощущает человек, с поправкой на солнечный нагрев. Характеристика знойности погоды. Зависит от высоты солнца над горизонтом, облачности и скорости ветра. Ночью, в пасмурную погоду, а также при ветре 12 м/с и более поправка равна нулю.
P - Атмосферное давление - приведенное к уровню моря атмосферное давление.
Po - Атмосферное давление - измеренное на уровне метеостанции атмосферное давление.
Tmin - Минимальная температура - минимум температуры воздуха на высоте 2 м над землей.
Tmax - Максимальная температура - максимум температуры воздуха на высоте 2 м над землей.
R - Количество осадков - Количество выпавших осадков за период времени, мм. При наведении курсора мыши на число - период времени, за который выпало указанное количество осадков.
R24 - Количество осадков - Количество выпавших осадков за 24 часа, мм.
S - Снежный покров - Высота снежного покрова, см. При наведении курсора мыши на число - состояние снежного покрова и степень покрытия местности в баллах.